Powrót do katalogu

USA 346

AktywnyMilitariaGEO
NORAD 57836·PAYLOAD·🇺🇸 United States

Wystrzelony Sep 10, 2023 z Cape Canaveral Space Force Station

Loading…

TLE

NieaktualneSource: Mike McCants

Epoka: Jun 14, 2025, 04:49 UTC

1 57836U 23140A   25165.20101659 0.00000000  00000-0  00000-0 0    05
2 57836  12.3140   7.1362 0000620 127.0857 232.9143  1.00270817    09

Śledź USA 346 w czasie rzeczywistym z AllMySat

Download on the App Store